Weather History for Bad Axe, MI

Change the Weather History Date:

Saturday, November 17, 2012

  Actual Average (KP58) Record (KP58)
Temperature  
Mean Temperature 38 °F -  
Max Temperature 52 °F 43 °F 63 °F (2013)
Min Temperature 24 °F 34 °F 19 °F (2014)
Degree Days  
Heating Degree Days 28    
Moisture  
Dew Point 31 °F    
Average Humidity 86    
Maximum Humidity 100    
Minimum Humidity 51    
Precipitation  
Precipitation 0.00 in - - ()
Sea Level Pressure  
Sea Level Pressure 30.56 in    
Wind  
Wind Speed 1 mph (South)    
Max Wind Speed 7 mph    
Max Gust Speed -    
Visibility 5 miles    
Events Fog    
Averages and records for this station are not official NWS values.
T = Trace of Precipitation, MM = Missing Value Source: NWS Daily Summary

Daily Weather History Graph

Daily Weather History Graph

Search for Another Location

Airport:

Trip Planner

Search our weather history database for the weather conditions in past years. The results will help you decide how hot, cold, wet, or windy it might be!

Date:

Astronomy

Nov. 17, 2012 Rise Set
Actual Time 7:29 AM EST 5:04 PM EST
Civil Twilight 6:58 AM EST 5:35 PM EST
Nautical Twilight 6:23 AM EST 6:10 PM EST
Astronomical Twilight 5:49 AM EST 6:44 PM EST
Moon 11:13 AM EST (11/17) 9:13 PM EST (11/17)
Length of Visible Light 10h 36m
Length of Day
9h 34m
Waxing Crescent, 20% of the Moon is Illuminated
Nov 17
Waxing Crescent
Nov 20
First Quarter
Nov 28
Full
Dec 6
Last Quarter
Dec 13
New

Hourly Weather History & Observations

Time (EST) Temp. Windchill Dew Point Humidity Pressure Visibility Wind Dir Wind Speed Gust Speed Precip Events Conditions
12:14 AM 26.6 °F - 26.1 °F 98% 30.51 in 0.2 mi Calm Calm - N/A Fog Light Freezing Fog
12:35 AM 25.7 °F - 25.0 °F 97% 30.52 in 0.2 mi Calm Calm - N/A Fog Light Freezing Fog
12:54 AM 26.2 °F - 25.7 °F 98% 30.52 in 0.8 mi Calm Calm - N/A   Overcast
1:14 AM 26.6 °F - 26.1 °F 98% 30.52 in 0.2 mi Calm Calm - N/A Fog Light Freezing Fog
1:35 AM 27.3 °F - 27.0 °F 99% 30.52 in 0.2 mi Calm Calm - N/A Fog Light Freezing Fog
1:54 AM 27.5 °F - 27.1 °F 99% 30.52 in 0.2 mi Calm Calm - N/A Fog Light Freezing Fog
2:15 AM 29.1 °F - 28.8 °F 99% 30.52 in 0.2 mi Calm Calm - N/A Fog Light Freezing Fog
2:35 AM 29.5 °F - 29.3 °F 99% 30.53 in 0.2 mi Calm Calm - N/A Fog Light Freezing Fog
2:54 AM 29.7 °F - 29.3 °F 99% 30.54 in 0.2 mi Calm Calm - N/A Fog Light Freezing Fog
3:15 AM 30.2 °F - 30.0 °F 99% 30.54 in 0.2 mi Calm Calm - N/A Fog Light Freezing Fog
3:35 AM 30.2 °F - 30.0 °F 99% 30.54 in 0.2 mi Calm Calm - N/A Fog Light Freezing Fog
3:54 AM 29.3 °F - 29.1 °F 99% 30.54 in 0.2 mi Calm Calm - N/A Fog Light Freezing Fog
4:15 AM 28.4 °F - 28.4 °F 100% 30.54 in 0.2 mi Calm Calm - N/A Fog Light Freezing Fog
4:35 AM 28.2 °F - 28.2 °F 100% 30.54 in 0.5 mi Calm Calm - N/A Fog Light Freezing Fog
4:54 AM 26.6 °F - 26.4 °F 99% 30.55 in 0.2 mi Calm Calm - N/A Fog Light Freezing Fog
5:15 AM 27.5 °F - 27.3 °F 99% 30.55 in 0.2 mi Calm Calm - N/A Fog Light Freezing Fog
5:35 AM 26.1 °F - 25.5 °F 98% 30.56 in 0.2 mi Calm Calm - N/A Fog Light Freezing Fog
5:54 AM 25.2 °F - 24.8 °F 99% 30.56 in 0.8 mi Calm Calm - N/A   Overcast
6:15 AM 26.4 °F - 25.9 °F 98% 30.56 in 0.2 mi Calm Calm - N/A Fog Light Freezing Fog
6:34 AM 25.3 °F - 25.0 °F 99% 30.56 in 1.8 mi Calm Calm - N/A   Mostly Cloudy
6:55 AM 24.6 °F - 23.9 °F 97% 30.57 in 4.0 mi Calm Calm - N/A   Scattered Clouds
7:15 AM 24.8 °F - 24.4 °F 99% 30.57 in 4.0 mi Calm Calm - N/A   Scattered Clouds
7:35 AM 25.3 °F - 24.8 °F 98% 30.57 in 3.0 mi Calm Calm - N/A   Clear
7:55 AM 25.7 °F - 25.2 °F 98% 30.58 in 0.5 mi Calm Calm - N/A Fog Light Freezing Fog
8:15 AM 25.7 °F - 25.2 °F 98% 30.58 in 2.5 mi Calm Calm - N/A   Scattered Clouds
8:35 AM 27.0 °F 21.6 °F 26.4 °F 98% 30.58 in 1.8 mi SSE 4.6 mph - N/A   Mist
8:55 AM 32.0 °F 28.7 °F 31.8 °F 99% 30.58 in 1.5 mi SSE 3.5 mph - N/A   Mist
9:15 AM 33.3 °F 30.2 °F 33.1 °F 99% 30.59 in 1.8 mi South 3.5 mph - N/A   Mist
9:35 AM 35.6 °F 32.8 °F 35.6 °F 100% 30.59 in 2.5 mi South 3.5 mph - N/A   Clear
9:55 AM 36.9 °F 33.1 °F 36.9 °F 100% 30.59 in 4.0 mi South 4.6 mph - N/A   Clear
10:14 AM 38.3 °F 34.8 °F 38.3 °F 100% 30.60 in 5.0 mi South 4.6 mph - N/A   Clear
10:35 AM 40.1 °F 36.1 °F 40.1 °F 100% 30.60 in 5.0 mi South 5.8 mph - N/A   Clear
10:55 AM 41.4 °F 36.8 °F 41.2 °F 99% 30.60 in 7.0 mi SSE 6.9 mph - N/A   Clear
11:15 AM 42.8 °F 39.3 °F 41.9 °F 97% 30.59 in 7.0 mi South 5.8 mph - N/A   Clear
11:35 AM 44.2 °F 41.0 °F 42.1 °F 92% 30.59 in 7.0 mi South 5.8 mph - N/A   Clear
11:55 AM 46.4 °F 45.2 °F 39.0 °F 75% 30.58 in 7.0 mi SSW 3.5 mph - N/A   Clear
12:15 PM 47.7 °F - 38.3 °F 70% 30.58 in 10.0 mi SSW 5.8 mph - N/A   Clear
12:35 PM 48.4 °F - 38.1 °F 68% 30.57 in 7.0 mi South 5.8 mph - N/A   Clear
12:55 PM 49.5 °F - 38.1 °F 65% 30.57 in 10.0 mi SSW 5.8 mph - N/A   Clear
1:15 PM 49.8 °F - 36.9 °F 61% 30.57 in 10.0 mi SSW 3.5 mph - N/A   Clear
1:35 PM 50.9 °F - 36.3 °F 57% 30.57 in 10.0 mi SW 4.6 mph - N/A   Clear
1:55 PM 51.8 °F - 35.8 °F 54% 30.56 in 10.0 mi SW 4.6 mph - N/A   Clear
2:15 PM 51.4 °F - 34.7 °F 53% 30.56 in 10.0 mi WSW 4.6 mph - N/A   Clear
2:35 PM 51.8 °F - 34.7 °F 52% 30.56 in 10.0 mi WSW 3.5 mph - N/A   Clear
2:55 PM 51.3 °F - 33.6 °F 51% 30.55 in 10.0 mi WSW 6.9 mph - N/A   Clear
3:15 PM 51.3 °F - 34.0 °F 52% 30.55 in 10.0 mi Calm Calm - N/A   Clear
3:35 PM 50.9 °F - 34.5 °F 54% 30.55 in 10.0 mi Calm Calm - N/A   Clear
3:55 PM 50.5 °F - 35.2 °F 56% 30.55 in 10.0 mi Calm Calm - N/A   Clear
4:15 PM 50.4 °F - 35.8 °F 57% 30.55 in 10.0 mi Calm Calm - N/A   Clear
4:35 PM 49.3 °F - 36.3 °F 61% 30.56 in 10.0 mi Calm Calm - N/A   Clear
4:55 PM 46.8 °F - 35.4 °F 65% 30.55 in 10.0 mi Calm Calm - N/A   Clear
5:15 PM 44.2 °F - 34.7 °F 69% 30.55 in 10.0 mi Calm Calm - N/A   Clear
5:35 PM 42.1 °F - 34.5 °F 75% 30.56 in 10.0 mi Calm Calm - N/A   Clear
5:55 PM 37.2 °F - 31.8 °F 81% 30.56 in 10.0 mi Calm Calm - N/A   Clear
6:15 PM 36.0 °F - 31.6 °F 84% 30.56 in 10.0 mi Calm Calm - N/A   Clear
6:35 PM 36.1 °F - 32.0 °F 85% 30.56 in 7.0 mi Calm Calm - N/A   Clear
6:55 PM 32.9 °F 29.8 °F 30.0 °F 89% 30.56 in 7.0 mi East 3.5 mph - N/A   Clear
7:15 PM 32.5 °F - 30.0 °F 90% 30.56 in 7.0 mi Calm Calm - N/A   Clear
7:35 PM 31.6 °F - 28.9 °F 90% 30.56 in 5.0 mi Calm Calm - N/A   Clear
7:55 PM 31.3 °F - 28.9 °F 91% 30.56 in 5.0 mi Calm Calm - N/A   Clear
8:15 PM 30.7 °F - 28.6 °F 92% 30.56 in 4.0 mi Calm Calm - N/A   Clear
8:35 PM 30.2 °F 26.7 °F 28.2 °F 92% 30.56 in 5.0 mi SSE 3.5 mph - N/A   Clear
8:55 PM 29.7 °F - 27.5 °F 92% 30.56 in 5.0 mi Calm Calm - N/A   Clear
9:15 PM 31.3 °F 27.9 °F 29.5 °F 93% 30.56 in 7.0 mi SSE 3.5 mph - N/A   Clear
9:55 PM 35.8 °F 33.0 °F 31.6 °F 85% 30.56 in 7.0 mi SSE 3.5 mph - N/A   Clear
10:15 PM 35.6 °F - 31.5 °F 85% 30.56 in 7.0 mi Calm Calm - N/A   Clear
10:36 PM 34.7 °F - 31.1 °F 87% 30.56 in 5.0 mi Calm Calm - N/A   Clear
10:55 PM 33.3 °F 30.2 °F 30.9 °F 91% 30.56 in 5.0 mi SSE 3.5 mph - N/A   Clear
11:14 PM 33.8 °F 30.8 °F 30.6 °F 88% 30.56 in 7.0 mi SSE 3.5 mph - N/A   Clear
11:35 PM 33.6 °F 30.6 °F 30.6 °F 89% 30.56 in 7.0 mi SSE 3.5 mph - N/A   Clear
11:55 PM 36.5 °F 33.9 °F 32.0 °F 84% 30.56 in 7.0 mi SSE 3.5 mph - N/A   Clear